Location: Unspecified
(0.0000°N, 0.0000°E)
Time: 07:28:12
(UTC+00:00)

Courier 1B Rocket - All Passes

Search period start: 01 June 2016 00:00
Search period end: 11 June 2016 00:00
Orbit: 920 x 1202 km, 28.2° (Epoch: 31 May)

Date Brightness Start Highest point End Pass type
(mag) Time Alt. Az. Time Alt. Az. Time Alt. Az.
01 Jun - 01:51:26 10° W 01:57:07 24° NNW 02:02:30 10° NNE visible
01 Jun - 09:33:21 10° NNW 09:38:05 22° NNE 09:42:55 10° ENE daylight
01 Jun - 11:25:15 10° WNW 11:31:36 84° NNE 11:38:21 10° ESE daylight
01 Jun - 13:19:48 10° W 13:25:19 28° SSW 13:31:09 10° SSE daylight
01 Jun - 21:01:47 10° SSW 21:07:50 24° SSE 21:13:47 10° ESE visible
01 Jun - 22:54:14 10° SW 23:02:02 72° SSE 23:09:26 10° ENE night (unlit)
02 Jun - 00:49:02 10° W 00:55:50 36° NNW 01:02:15 10° NE night (unlit)
02 Jun - 02:48:53 10° NNW 02:50:11 10° NNW 02:51:28 10° N visible
02 Jun - 08:33:36 10° N 08:36:53 15° NNE 08:40:11 10° ENE daylight
02 Jun - 10:24:32 10° NW 10:30:37 54° NNE 10:36:59 10° ESE daylight
02 Jun - 12:18:09 10° W 12:24:07 40° SSW 12:30:27 10° SE daylight
02 Jun - 14:15:30 10° SW 14:18:26 13° SSW 14:21:27 10° S daylight
02 Jun - 20:01:28 10° SSW 20:06:14 17° SSE 20:11:00 10° ESE visible
02 Jun - 21:53:10 10° SW 22:00:42 50° SSE 22:08:01 10° ENE night (unlit)
02 Jun - 23:47:05 10° WSW 23:54:35 53° NNW 00:01:42 10° NE night (unlit)
03 Jun - 01:44:20 10° WNW 01:48:41 16° NNW 01:52:53 10° NNE visible
03 Jun - 09:24:02 10° NW 09:29:38 34° NNE 09:35:20 10° E daylight
03 Jun - 11:16:51 10° WNW 11:23:03 61° SSW 11:29:35 10° SE daylight
03 Jun - 13:12:40 10° WSW 13:16:58 18° SSW 13:21:28 10° SSE daylight
03 Jun - 19:01:48 10° S 19:04:31 12° SSE 19:07:15 10° SE visible
03 Jun - 20:52:20 10° SW 20:59:19 35° SSE 21:06:13 10° E visible
03 Jun - 22:45:28 10° WSW 22:53:19 78° NNW 23:00:51 10° NE night (unlit)
04 Jun - 00:41:20 10° W 00:47:16 24° NNW 00:52:58 10° NNE night (unlit)
04 Jun - 08:23:46 10° NNW 08:28:33 23° NNE 08:33:20 10° ENE daylight
04 Jun - 10:15:49 10° WNW 10:22:04 87° NNE 10:28:32 10° ESE daylight
04 Jun - 12:10:30 10° W 12:15:41 26° SSW 12:21:06 10° SSE daylight
04 Jun - 19:51:46 10° SSW 19:57:51 24° SSE 20:03:56 10° ESE visible
04 Jun - 21:44:09 10° SW 21:52:01 74° SSE 21:59:41 10° ENE visible
04 Jun - 23:38:56 10° W 23:45:56 36° NNW 23:52:37 10° NE night (unlit)
05 Jun - 01:38:20 10° NW 01:40:25 11° NNW 01:42:28 10° N visible
05 Jun - 07:23:51 10° N 07:27:21 15° NNE 07:30:48 10° ENE daylight
05 Jun - 09:15:01 10° NW 09:21:07 55° NNE 09:27:17 10° ESE daylight
05 Jun - 11:08:47 10° W 11:14:33 38° SSW 11:20:32 10° SE daylight
05 Jun - 13:06:39 10° SW 13:08:46 12° SSW 13:10:56 10° S daylight
05 Jun - 18:51:34 10° SSW 18:56:17 17° SSE 19:01:04 10° ESE visible
05 Jun - 20:43:08 10° SW 20:50:40 51° SSE 20:58:11 10° ENE visible
05 Jun - 22:37:00 10° WSW 22:44:36 53° NNW 22:51:58 10° NE night (unlit)
06 Jun - 00:34:11 10° WNW 00:38:50 17° NNW 00:43:22 10° NNE night (unlit)
06 Jun - 06:25:27 10° NNE 06:25:58 10° NNE 06:26:29 10° NNE daylight
06 Jun - 08:14:26 10° NW 08:20:07 35° NNE 08:25:46 10° E daylight
06 Jun - 10:07:25 10° WNW 10:13:32 59° SSW 10:19:48 10° SE daylight
06 Jun - 12:03:29 10° WSW 12:07:22 17° SSW 12:11:21 10° SSE daylight
06 Jun - 17:52:07 10° S 17:54:37 12° SSE 17:57:08 10° SE daylight
06 Jun - 19:42:23 10° SW 19:49:18 35° SSE 19:56:18 10° E visible
06 Jun - 21:35:26 10° WSW 21:43:17 77° NNW 21:51:02 10° NE visible
06 Jun - 23:31:15 10° W 23:37:21 25° NNW 23:43:18 10° NNE night (unlit)
07 Jun - 07:14:02 10° NNW 07:19:02 24° NNE 07:23:55 10° ENE daylight
07 Jun - 09:06:18 10° WNW 09:12:34 89° NNE 09:18:52 10° ESE daylight
07 Jun - 11:01:10 10° W 11:06:07 24° SSW 11:11:12 10° SSE daylight
07 Jun - 18:41:56 10° SSW 18:47:52 24° SSE 18:53:57 10° ESE visible
07 Jun - 20:34:11 10° SW 20:41:58 75° SSE 20:49:47 10° ENE visible
07 Jun - 22:28:54 10° W 22:35:55 36° NNW 22:42:50 10° NE night (unlit)
08 Jun - 00:28:01 10° NW 00:30:34 12° NNW 00:33:07 10° N night (unlit)
08 Jun - 06:13:55 10° NNW 06:17:47 16° NNE 06:21:34 10° ENE daylight
08 Jun - 08:05:24 10° NW 08:11:38 57° NNE 08:17:44 10° ESE daylight
08 Jun - 09:59:21 10° W 10:05:02 36° SSW 10:10:47 10° SE daylight
08 Jun - 11:58:05 10° SSW 11:59:11 10° SSW 12:00:17 10° S daylight
08 Jun - 17:41:52 10° SSW 17:46:22 17° SSE 17:50:59 10° ESE daylight
08 Jun - 19:33:15 10° SW 19:40:38 52° SSE 19:48:13 10° ENE visible
08 Jun - 21:27:01 10° WSW 21:34:34 52° NNW 21:42:05 10° NE visible
08 Jun - 23:24:07 10° WNW 23:28:56 17° NNW 23:33:40 10° NNE night (unlit)
09 Jun - 05:14:28 10° N 05:16:23 11° NNE 05:18:16 10° NE visible
09 Jun - 07:04:40 10° NW 07:10:36 37° NNE 07:16:20 10° E daylight
09 Jun - 08:57:51 10° WNW 09:04:02 57° SSW 09:10:10 10° SE daylight
09 Jun - 10:54:14 10° WSW 10:57:48 15° SSW 11:01:25 10° SSE daylight
09 Jun - 16:42:47 10° S 16:44:47 11° SSE 16:46:49 10° SE daylight
09 Jun - 18:32:36 10° SW 18:39:18 35° SSE 18:46:16 10° E visible
09 Jun - 20:25:32 10° WSW 20:33:13 75° NNW 20:41:04 10° NE visible
09 Jun - 22:21:15 10° WNW 22:27:23 25° NNW 22:33:27 10° NNE visible
10 Jun - 06:04:08 10° NNW 06:09:28 25° NNE 06:14:35 10° E daylight
10 Jun - 07:56:38 10° WNW 08:03:06 88° SSW 08:09:21 10° ESE daylight
10 Jun - 09:51:45 10° WSW 09:56:35 23° SSW 10:01:27 10° SSE daylight
10 Jun - 17:32:15 10° SSW 17:37:57 24° SSE 17:43:52 10° ESE daylight
10 Jun - 19:24:22 10° SW 19:31:55 77° SSE 19:39:45 10° ENE visible
10 Jun - 21:18:59 10° W 21:25:54 35° NNW 21:32:54 10° NE visible
10 Jun - 23:17:54 10° NW 23:20:40 12° NNW 23:23:26 10° N night (unlit)
